Home > Weather > Fort Wayne > Past weeks

Flag for USA Past Weather in Fort Wayne, Indiana, USA — Yesterday and Last 2 Weeks

Now
76 °F

Passing clouds.


Feels Like: 77 °F
Forecast: 64 / 86 °F
Wind: 3 mph from East

Location: Fort Wayne International Airport

Current Time: Aug 29, 2016 at 9:33:56 PM

Latest Report: Aug 29, 2016 at 8:54 PM


Visibility: 10 mi

Pressure: 30.18 "Hg

Humidity: 80%

Dew Point: 69 °F

Location of Fort WayneLocation

Past Weather in Fort Wayne — Graph

°F

Fort Wayne Temperature Yesterday

Maximum temperature yesterday: 89 °F (at 2:54 PM)
Minimum temperature yesterday: 67 °F (at 6:54 AM)
Average temperature yesterday: 76 °F

High & Low Weather Summary for the Past Weeks

 TemperatureHumidityPressure
High89 °F (Aug 28, 2:54 PM)97% (Aug 15, 2:54 AM)30.29 "Hg (Aug 15, 2:54 AM)
Low55 °F (Aug 23, 4:54 AM)42% (Aug 26, 11:54 AM)29.64 "Hg (Aug 20, 4:54 PM)
Average73 °F80%30.06 "Hg
* Reported Aug 14 7:54 PM — Aug 29 7:54 PM, Fort Wayne, Weather by CustomWeather, © 2016

Note: Actual official high and low records may vary slightly from our data, if they occured in-between our weather recording intervals... More about our weather records

Advertising

Fort Wayne Weather History for the Previous 24 Hours

Scroll right to see more
 ConditionsComfort  
Time TempWeatherWind HumidityBarometerVisibility
7:54 PM
Mon, Aug 29
81 °FPassing clouds.5 mph67%30.17 "Hg10 mi
6:54 PM84 °FPassing clouds.6 mph59%30.17 "Hg10 mi
5:54 PM86 °FPassing clouds.5 mph53%30.17 "Hg10 mi
4:54 PM83 °FPassing clouds.3 mph59%30.18 "Hg10 mi
3:54 PM85 °FScattered clouds.3 mph55%30.21 "Hg10 mi
2:54 PM85 °FScattered clouds.3 mph61%30.24 "Hg10 mi
1:54 PM83 °FBroken clouds.6 mph68%30.26 "Hg10 mi
12:54 PM80 °FPartly sunny.9 mph76%30.27 "Hg9 mi
11:54 AM77 °FLow clouds.7 mph82%30.27 "Hg7 mi
11:03 AM74 °FFog.8 mph88%30.27 "Hg1 mi
10:54 AM74 °FFog.8 mph88%30.26 "Hg1 mi
9:54 AM72 °FFog.8 mph91%30.26 "Hg1 mi
9:03 AM71 °FMostly cloudy.10 mph90%30.27 "Hg7 mi
8:54 AM71 °FBroken clouds.9 mph90%30.25 "Hg9 mi
7:54 AM69 °FPassing clouds.5 mph90%30.23 "Hg10 mi
6:54 AM67 °FPassing clouds.5 mph90%30.21 "Hg10 mi
5:54 AM67 °FPassing clouds.3 mph93%30.20 "Hg10 mi
4:54 AM68 °FPassing clouds.No wind90%30.19 "Hg10 mi
3:54 AM68 °FPassing clouds.3 mph90%30.19 "Hg10 mi
2:54 AM68 °FPassing clouds.5 mph90%30.19 "Hg10 mi
1:54 AM67 °FPassing clouds.3 mph93%30.21 "Hg10 mi
12:54 AM67 °FPassing clouds.3 mph90%30.22 "Hg10 mi
11:54 PM
Sun, Aug 28
68 °FPassing clouds.No wind90%30.21 "Hg10 mi
10:54 PM69 °FPassing clouds.3 mph90%30.22 "Hg10 mi
9:54 PM70 °FPassing clouds.No wind90%30.19 "Hg10 mi
Weather by CustomWeather, © 2016

See weather overviewHow to use our weather pages